CCA8978 ZGSZ-YSSY

Flight info

Callsign CCA8978
Flight time N/A
Altitude 33100
Route SIERA SABNO A583 ZAM A461 AMN R340 GUTEV R340 SURVO Y161 OVNOM H652 BOREE
Aircraft B789/H-SDE1E2E3FGHIJ2J3J4J5M1RWXY/LB1D1

Departure

Time 2026-04-11 04:30
Airport Shenzhen Bao'an International Airport (ZGSZ)

Arrival

Time N/A
Airport Sydney Kingsford Smith International Airport (YSSY)
Time Latitude Longitude Altitude Speed Heading
2026-04-11 04:02 22.64362 113.81197 27 ft 0 kts 61°
2026-04-11 04:23 22.64363 113.81198 55 ft 1 kts 61°
2026-04-11 04:23 22.64371 113.81214 27 ft 4 kts 61°
2026-04-11 04:23 22.64375 113.81241 27 ft 2 kts 94°
2026-04-11 04:23 22.64366 113.81250 27 ft 2 kts 141°
2026-04-11 04:24 22.64345 113.81247 27 ft 5 kts 192°
2026-04-11 04:24 22.64304 113.81200 27 ft 12 kts 231°
2026-04-11 04:24 22.64293 113.81100 27 ft 15 kts 302°
2026-04-11 04:24 22.64392 113.81028 27 ft 19 kts 333°
2026-04-11 04:25 22.64522 113.80957 27 ft 23 kts 333°
2026-04-11 04:25 22.64681 113.80870 27 ft 27 kts 333°
2026-04-11 04:25 22.64856 113.80774 28 ft 28 kts 333°
2026-04-11 04:25 22.65031 113.80677 28 ft 28 kts 333°
2026-04-11 04:26 22.65204 113.80582 27 ft 26 kts 334°
2026-04-11 04:26 22.65318 113.80519 27 ft 8 kts 330°
2026-04-11 04:26 22.65346 113.80463 27 ft 7 kts 271°
2026-04-11 04:26 22.65337 113.80429 27 ft 0 kts 247°
2026-04-11 04:27 22.65337 113.80428 27 ft 0 kts 247°
2026-04-11 04:27 22.65335 113.80423 27 ft 1 kts 246°
2026-04-11 04:27 22.65328 113.80407 27 ft 5 kts 245°
2026-04-11 04:28 22.65302 113.80360 28 ft 9 kts 229°
2026-04-11 04:28 22.65277 113.80345 28 ft 0 kts 198°
2026-04-11 04:28 22.65259 113.80344 29 ft 6 kts 180°
2026-04-11 04:28 22.65211 113.80362 29 ft 0 kts 155°
2026-04-11 04:29 22.65210 113.80362 29 ft 0 kts 155°
2026-04-11 04:29 22.65063 113.80442 29 ft 63 kts 153°
2026-04-11 04:30 22.64415 113.80796 28 ft 144 kts 153°
2026-04-11 04:30 22.63370 113.81400 380 ft 185 kts 150°
2026-04-11 04:30 22.62169 113.82057 1270 ft 204 kts 159°
2026-04-11 04:30 22.60863 113.82730 2389 ft 205 kts 157°
2026-04-11 04:31 22.59630 113.83415 3602 ft 209 kts 158°
2026-04-11 04:31 22.58285 113.84150 4467 ft 225 kts 158°
2026-04-11 04:31 22.56845 113.84934 5309 ft 239 kts 158°
2026-04-11 04:31 22.55329 113.85767 6356 ft 248 kts 158°
2026-04-11 04:32 22.53720 113.86480 7308 ft 249 kts 176°
2026-04-11 04:32 22.51997 113.86442 8333 ft 248 kts 198°
2026-04-11 04:32 22.50914 113.85993 9025 ft 248 kts 213°
2026-04-11 04:32 22.49620 113.84809 10042 ft 249 kts 236°
2026-04-11 04:33 22.48862 113.83140 11056 ft 249 kts 257°
2026-04-11 04:33 22.48645 113.81269 12046 ft 253 kts 263°
2026-04-11 04:33 22.48490 113.79365 13078 ft 256 kts 263°
2026-04-11 04:33 22.48344 113.77436 14062 ft 258 kts 263°
2026-04-11 04:34 22.48188 113.75490 14997 ft 261 kts 262°
2026-04-11 04:34 22.48027 113.73523 15903 ft 264 kts 262°
2026-04-11 04:34 22.47866 113.71533 16815 ft 267 kts 262°
2026-04-11 04:34 22.47703 113.69519 17733 ft 270 kts 262°
2026-04-11 04:35 22.47537 113.67481 18558 ft 274 kts 262°
2026-04-11 04:35 22.47369 113.65415 19296 ft 279 kts 262°
2026-04-11 04:35 22.47197 113.63303 19739 ft 283 kts 262°
2026-04-11 04:35 22.47004 113.61181 19875 ft 284 kts 257°
2026-04-11 04:36 22.46380 113.59177 19884 ft 280 kts 242°
2026-04-11 04:36 22.45260 113.57437 19913 ft 299 kts 228°
2026-04-11 04:36 22.43625 113.55862 19898 ft 331 kts 223°
2026-04-11 04:36 22.41803 113.54165 19915 ft 359 kts 223°
2026-04-11 04:37 22.39855 113.52387 19906 ft 367 kts 219°
2026-04-11 04:37 22.37676 113.50913 19910 ft 375 kts 209°
2026-04-11 04:37 22.35238 113.49890 19905 ft 378 kts 199°
2026-04-11 04:37 22.32668 113.49236 19907 ft 380 kts 197°
2026-04-11 04:38 22.30086 113.48599 19887 ft 381 kts 197°
2026-04-11 04:38 22.27530 113.47977 19904 ft 380 kts 197°
2026-04-11 04:38 22.24937 113.47384 19887 ft 382 kts 192°
2026-04-11 04:38 22.22255 113.47253 19907 ft 389 kts 181°
2026-04-11 04:39 22.19562 113.47683 19901 ft 397 kts 171°
2026-04-11 04:39 22.16913 113.48600 19889 ft 399 kts 167°
2026-04-11 04:39 22.14278 113.49553 19898 ft 400 kts 167°
2026-04-11 04:39 22.11639 113.50521 19887 ft 400 kts 166°
2026-04-11 04:40 22.09002 113.51492 19897 ft 399 kts 166°
2026-04-11 04:40 22.06405 113.52444 19886 ft 400 kts 166°
2026-04-11 04:40 22.03768 113.53406 19890 ft 400 kts 166°
2026-04-11 04:40 22.01133 113.54369 19896 ft 400 kts 166°
2026-04-11 04:41 21.98550 113.55494 19909 ft 406 kts 156°
2026-04-11 04:41 21.96147 113.57186 20170 ft 415 kts 149°
2026-04-11 04:41 21.93795 113.59010 20872 ft 418 kts 149°
2026-04-11 04:41 21.91430 113.60859 21619 ft 423 kts 149°
2026-04-11 04:42 21.89040 113.62737 22321 ft 427 kts 149°
2026-04-11 04:42 21.86621 113.64630 22998 ft 432 kts 149°
2026-04-11 04:42 21.84172 113.66541 23621 ft 437 kts 149°
2026-04-11 04:42 21.81693 113.68475 24161 ft 441 kts 148°
2026-04-11 04:43 21.79195 113.70428 24708 ft 446 kts 148°
2026-04-11 04:43 21.76674 113.72397 25244 ft 450 kts 148°
2026-04-11 04:43 21.74126 113.74384 25784 ft 453 kts 148°
2026-04-11 04:43 21.71561 113.76384 26315 ft 457 kts 148°
2026-04-11 04:44 21.68975 113.78399 26846 ft 461 kts 148°
2026-04-11 04:44 21.66369 113.80431 27365 ft 465 kts 148°
2026-04-11 04:44 21.63741 113.82477 27879 ft 468 kts 148°
2026-04-11 04:44 21.61127 113.84512 28374 ft 472 kts 148°
2026-04-11 04:45 21.58458 113.86589 28869 ft 475 kts 147°
2026-04-11 04:45 21.55772 113.88678 29354 ft 479 kts 147°
2026-04-11 04:45 21.53063 113.90783 29837 ft 482 kts 147°
2026-04-11 04:45 21.50336 113.92902 30253 ft 485 kts 147°
2026-04-11 04:46 21.47588 113.95036 30641 ft 489 kts 147°
2026-04-11 04:46 21.44825 113.97181 31015 ft 492 kts 147°
2026-04-11 04:46 21.42041 113.99340 31382 ft 495 kts 147°
2026-04-11 04:46 21.39237 114.01515 31747 ft 498 kts 147°
2026-04-11 04:47 21.36407 114.03709 31902 ft 504 kts 147°
2026-04-11 04:47 21.30757 114.08087 31924 ft 501 kts 147°
2026-04-11 04:48 21.25102 114.12461 31906 ft 499 kts 147°
2026-04-11 04:48 21.19454 114.16827 31899 ft 500 kts 147°
2026-04-11 04:49 21.13836 114.21166 31901 ft 500 kts 147°
2026-04-11 04:49 21.08197 114.25517 31903 ft 499 kts 147°
2026-04-11 04:50 21.02561 114.29861 31901 ft 499 kts 147°
2026-04-11 04:50 20.96925 114.34201 31905 ft 498 kts 147°
2026-04-11 04:51 20.91292 114.38534 31902 ft 498 kts 147°
2026-04-11 04:51 20.85696 114.42836 31902 ft 498 kts 147°
2026-04-11 04:52 20.80061 114.47163 31906 ft 497 kts 147°
2026-04-11 04:52 20.74437 114.51477 31904 ft 497 kts 147°
2026-04-11 04:53 20.68825 114.55779 31909 ft 496 kts 147°
2026-04-11 04:53 20.63243 114.60053 31906 ft 496 kts 147°
2026-04-11 04:54 20.57622 114.64354 31910 ft 496 kts 147°
2026-04-11 04:54 20.52006 114.68646 31912 ft 496 kts 147°
2026-04-11 04:55 20.46431 114.72904 31914 ft 496 kts 147°
2026-04-11 04:55 20.40823 114.77182 31913 ft 495 kts 147°
2026-04-11 04:56 20.35210 114.81460 31912 ft 495 kts 147°
2026-04-11 04:56 20.29596 114.85736 31916 ft 495 kts 147°
2026-04-11 04:57 20.23993 114.89999 31917 ft 495 kts 147°
2026-04-11 04:57 20.18418 114.94237 31921 ft 495 kts 147°
2026-04-11 04:58 20.12807 114.98498 31918 ft 495 kts 147°
2026-04-11 04:58 20.07195 115.02756 31928 ft 495 kts 147°
2026-04-11 04:59 20.01615 115.06987 31922 ft 495 kts 147°
2026-04-11 04:59 19.96000 115.11240 31930 ft 494 kts 146°
2026-04-11 05:00 19.90373 115.15498 32101 ft 498 kts 146°
2026-04-11 05:00 19.87545 115.17635 32548 ft 498 kts 146°
2026-04-11 05:00 19.84754 115.19745 32894 ft 500 kts 146°
2026-04-11 05:01 19.80044 115.23305 32931 ft 495 kts 146°
2026-04-11 05:01 19.73545 115.28209 32927 ft 496 kts 146°
2026-04-11 05:02 19.67921 115.32452 32933 ft 495 kts 146°
2026-04-11 05:02 19.62303 115.36686 32932 ft 495 kts 146°
2026-04-11 05:03 19.56684 115.40912 32932 ft 495 kts 146°
2026-04-11 05:03 19.51106 115.45111 32932 ft 495 kts 146°
2026-04-11 05:04 19.45484 115.49333 32934 ft 495 kts 146°
2026-04-11 05:04 19.39854 115.53560 32943 ft 494 kts 146°
2026-04-11 05:05 19.31463 115.59855 32947 ft 494 kts 146°
2026-04-11 05:05 19.25842 115.64064 32952 ft 494 kts 146°
2026-04-11 05:06 19.20224 115.68272 32950 ft 494 kts 146°
2026-04-11 05:06 19.14631 115.72454 32950 ft 494 kts 146°
2026-04-11 05:07 19.09020 115.76647 32950 ft 493 kts 146°
2026-04-11 05:07 19.03411 115.80835 32953 ft 493 kts 146°
2026-04-11 05:08 18.97739 115.84912 32969 ft 490 kts 154°
2026-04-11 05:08 18.91671 115.88247 32959 ft 491 kts 154°
2026-04-11 05:09 18.85646 115.91544 32957 ft 490 kts 154°
2026-04-11 05:09 18.79589 115.94862 32962 ft 490 kts 154°
2026-04-11 05:10 18.73533 115.98173 32961 ft 490 kts 154°
2026-04-11 05:10 18.67487 116.01478 32962 ft 489 kts 154°
2026-04-11 05:11 18.61439 116.04781 32960 ft 489 kts 154°
2026-04-11 05:11 18.55402 116.08075 32960 ft 488 kts 154°
2026-04-11 05:12 18.49365 116.11367 32959 ft 488 kts 154°
2026-04-11 05:12 18.43325 116.14658 32961 ft 488 kts 154°
2026-04-11 05:13 18.37329 116.17922 32957 ft 488 kts 154°
2026-04-11 05:13 18.31293 116.21205 32957 ft 487 kts 154°
2026-04-11 05:14 18.25265 116.24481 32957 ft 487 kts 154°
2026-04-11 05:14 18.19282 116.27730 32959 ft 487 kts 154°
2026-04-11 05:15 18.13260 116.30998 32961 ft 487 kts 154°
2026-04-11 05:15 18.07229 116.34268 32961 ft 487 kts 154°
2026-04-11 05:16 18.01208 116.37531 32962 ft 486 kts 154°
2026-04-11 05:16 17.95182 116.40793 32963 ft 486 kts 154°
2026-04-11 05:17 17.89202 116.44028 32961 ft 486 kts 154°
2026-04-11 05:17 17.83187 116.47280 32960 ft 486 kts 154°
2026-04-11 05:18 17.77170 116.50530 32966 ft 486 kts 154°
2026-04-11 05:18 17.71183 116.53762 32960 ft 486 kts 154°
2026-04-11 05:19 17.65164 116.57007 32960 ft 486 kts 154°
2026-04-11 05:19 17.59142 116.60252 32960 ft 486 kts 154°
2026-04-11 05:20 17.53121 116.63495 32958 ft 486 kts 154°
2026-04-11 05:20 17.47132 116.66718 32957 ft 486 kts 154°
2026-04-11 05:21 17.41106 116.69957 32957 ft 486 kts 154°
2026-04-11 05:21 17.35084 116.73193 32958 ft 486 kts 154°
2026-04-11 05:22 17.29092 116.76410 32960 ft 486 kts 154°
2026-04-11 05:22 17.23073 116.79639 32959 ft 486 kts 154°
2026-04-11 05:23 17.17051 116.82868 32958 ft 486 kts 154°
2026-04-11 05:23 17.12047 116.85548 32960 ft 486 kts 153°
2026-04-11 05:24 17.05030 116.89305 32959 ft 486 kts 153°
2026-04-11 05:24 16.99982 116.92005 32957 ft 487 kts 153°
2026-04-11 05:25 16.93985 116.95211 32957 ft 487 kts 153°
2026-04-11 05:25 16.87943 116.98439 32960 ft 487 kts 153°
2026-04-11 05:26 16.81910 117.01660 32961 ft 487 kts 153°
2026-04-11 05:26 16.75873 117.04880 32955 ft 487 kts 153°
2026-04-11 05:27 16.69835 117.08098 32958 ft 486 kts 153°
2026-04-11 05:27 16.63811 117.11307 32961 ft 487 kts 153°
2026-04-11 05:28 16.57818 117.14498 32960 ft 486 kts 153°
2026-04-11 05:28 16.51779 117.17710 32959 ft 486 kts 153°
2026-04-11 05:29 16.45753 117.20913 32952 ft 486 kts 153°
2026-04-11 05:29 16.39718 117.24118 32954 ft 487 kts 153°
2026-04-11 05:30 16.33682 117.27322 32954 ft 486 kts 153°
2026-04-11 05:30 16.27681 117.30505 32951 ft 487 kts 153°
2026-04-11 05:31 16.21642 117.33706 32950 ft 487 kts 153°
2026-04-11 05:31 16.15603 117.36904 32948 ft 487 kts 153°
2026-04-11 05:32 16.09556 117.40105 32949 ft 487 kts 153°
2026-04-11 05:32 16.03512 117.43302 32945 ft 487 kts 153°
2026-04-11 05:33 15.97458 117.46502 32949 ft 487 kts 153°
2026-04-11 05:33 15.91450 117.49676 32945 ft 487 kts 153°
2026-04-11 05:34 15.85399 117.52869 32949 ft 487 kts 153°
2026-04-11 05:34 15.79349 117.56061 32949 ft 488 kts 153°
2026-04-11 05:35 15.73289 117.59255 32948 ft 488 kts 153°
2026-04-11 05:35 15.67230 117.62447 32950 ft 488 kts 153°
2026-04-11 05:36 15.61168 117.65639 32946 ft 488 kts 153°
2026-04-11 05:36 15.55112 117.68824 32947 ft 488 kts 153°
2026-04-11 05:37 15.49061 117.72006 32944 ft 488 kts 153°
2026-04-11 05:37 15.43043 117.75167 32949 ft 487 kts 153°
2026-04-11 05:38 15.36988 117.78347 32947 ft 487 kts 153°
2026-04-11 05:38 15.30943 117.81518 32945 ft 487 kts 153°
2026-04-11 05:39 15.24889 117.84693 32945 ft 487 kts 153°
2026-04-11 05:39 15.18835 117.87865 32947 ft 487 kts 153°
2026-04-11 05:40 15.12780 117.91036 32944 ft 487 kts 153°
2026-04-11 05:40 15.06768 117.94182 32946 ft 487 kts 153°
2026-04-11 05:41 15.00714 117.97348 32945 ft 487 kts 153°
2026-04-11 05:41 14.94666 118.00510 32947 ft 487 kts 153°
2026-04-11 05:42 14.88610 118.03673 32949 ft 487 kts 153°
2026-04-11 05:42 14.82552 118.06835 32947 ft 487 kts 153°
2026-04-11 05:43 14.76543 118.09970 32949 ft 487 kts 153°
2026-04-11 05:43 14.70486 118.13128 32948 ft 487 kts 153°
2026-04-11 05:44 14.64436 118.16280 32947 ft 486 kts 153°
2026-04-11 05:44 14.58395 118.19426 32942 ft 486 kts 153°
2026-04-11 05:45 14.52357 118.22568 32944 ft 485 kts 152°
2026-04-11 05:45 14.46319 118.25708 32943 ft 485 kts 152°
2026-04-11 05:46 14.40283 118.28845 32944 ft 486 kts 152°
2026-04-11 05:46 14.34285 118.31961 32944 ft 485 kts 152°
2026-04-11 05:47 14.28262 118.35087 32943 ft 484 kts 152°
2026-04-11 05:47 14.22241 118.38211 32940 ft 484 kts 152°
2026-04-11 05:48 14.16218 118.41334 32941 ft 484 kts 152°
2026-04-11 05:48 14.10195 118.44454 32945 ft 484 kts 152°
2026-04-11 05:49 14.04222 118.47548 32947 ft 484 kts 152°
2026-04-11 05:49 13.98194 118.50668 32938 ft 484 kts 152°
2026-04-11 05:50 13.92170 118.53784 32943 ft 484 kts 152°
2026-04-11 05:50 13.86148 118.56897 32937 ft 484 kts 152°
2026-04-11 05:51 13.80134 118.60004 32940 ft 483 kts 152°
2026-04-11 05:51 13.74151 118.63093 32941 ft 483 kts 152°
2026-04-11 05:52 13.68143 118.66194 32938 ft 483 kts 152°
2026-04-11 05:52 13.62140 118.69290 32938 ft 482 kts 152°
2026-04-11 05:53 13.56137 118.72384 32938 ft 482 kts 152°
2026-04-11 05:53 13.50163 118.75461 32937 ft 482 kts 152°
2026-04-11 05:54 13.44160 118.78551 32938 ft 482 kts 152°
2026-04-11 05:54 13.38151 118.81643 32935 ft 482 kts 152°
2026-04-11 05:55 13.32144 118.84732 32936 ft 482 kts 152°
2026-04-11 05:55 13.26140 118.87818 32935 ft 483 kts 152°
2026-04-11 05:56 13.20131 118.90905 32930 ft 482 kts 152°
2026-04-11 05:56 13.14131 118.93985 32932 ft 482 kts 152°
2026-04-11 05:57 13.08170 118.97044 32933 ft 482 kts 152°
2026-04-11 05:57 13.02169 119.00121 32933 ft 482 kts 152°
2026-04-11 05:58 12.96158 119.03202 32932 ft 482 kts 152°
2026-04-11 05:58 12.90183 119.06263 32932 ft 482 kts 152°
2026-04-11 05:59 12.84165 119.09345 32934 ft 482 kts 152°
2026-04-11 05:59 12.78158 119.12419 32927 ft 482 kts 152°
2026-04-11 06:00 12.72149 119.15492 32928 ft 482 kts 152°
2026-04-11 06:00 12.66143 119.18563 32928 ft 483 kts 152°
2026-04-11 06:01 12.60157 119.21621 32928 ft 483 kts 152°
2026-04-11 06:01 12.54146 119.24690 32926 ft 482 kts 152°
2026-04-11 06:02 12.48137 119.27757 32925 ft 482 kts 152°
2026-04-11 06:02 12.42126 119.30824 32927 ft 482 kts 152°
2026-04-11 06:03 12.36120 119.33886 32923 ft 482 kts 152°
2026-04-11 06:03 12.30119 119.36944 32924 ft 482 kts 152°
2026-04-11 06:04 12.24155 119.39982 32926 ft 482 kts 152°
2026-04-11 06:04 12.18147 119.43040 32922 ft 481 kts 152°
2026-04-11 06:05 12.12143 119.46095 32915 ft 481 kts 152°
2026-04-11 06:05 12.06179 119.49129 32914 ft 481 kts 152°
2026-04-11 06:06 11.97186 119.53699 32914 ft 480 kts 152°
2026-04-11 06:07 11.91199 119.56740 32914 ft 480 kts 152°
2026-04-11 06:07 11.85215 119.59778 32918 ft 480 kts 152°
2026-04-11 06:08 11.79270 119.62795 32917 ft 479 kts 152°
2026-04-11 06:08 11.73298 119.65824 32918 ft 479 kts 152°
2026-04-11 06:09 11.67329 119.68852 32918 ft 479 kts 152°
2026-04-11 06:09 11.61366 119.71888 32919 ft 478 kts 152°
2026-04-11 06:10 11.55445 119.74896 32918 ft 478 kts 152°
2026-04-11 06:10 11.49495 119.77920 32920 ft 477 kts 152°
2026-04-11 06:11 11.44546 119.80434 32918 ft 477 kts 152°
2026-04-11 06:11 11.37591 119.83964 32918 ft 477 kts 152°
2026-04-11 06:12 11.32646 119.86473 32917 ft 477 kts 152°
2026-04-11 06:12 11.26693 119.89491 32918 ft 477 kts 152°
2026-04-11 06:13 11.20777 119.92490 32918 ft 477 kts 152°
2026-04-11 06:13 11.14829 119.95504 32922 ft 478 kts 152°
2026-04-11 06:14 11.08876 119.98519 32923 ft 478 kts 152°
2026-04-11 06:14 11.02912 120.01538 32921 ft 478 kts 152°
2026-04-11 06:15 10.96992 120.04529 32920 ft 478 kts 152°
2026-04-11 06:15 10.91029 120.07539 32921 ft 477 kts 152°
2026-04-11 06:16 10.85078 120.10543 32934 ft 477 kts 152°
2026-04-11 06:16 10.79130 120.13543 32902 ft 478 kts 152°
2026-04-11 06:17 10.73220 120.16523 32905 ft 476 kts 152°
2026-04-11 06:17 10.67288 120.19513 32903 ft 476 kts 152°
2026-04-11 06:18 10.61356 120.22502 32900 ft 476 kts 152°
2026-04-11 06:18 10.55417 120.25492 32900 ft 476 kts 152°
2026-04-11 06:19 10.49481 120.28480 32901 ft 475 kts 152°
2026-04-11 06:19 10.43580 120.31449 32904 ft 475 kts 152°
2026-04-11 06:20 10.37647 120.34433 32906 ft 475 kts 152°
2026-04-11 06:20 10.31718 120.37413 32905 ft 475 kts 152°
2026-04-11 06:21 10.25822 120.40376 32908 ft 475 kts 152°
2026-04-11 06:21 10.19883 120.43355 32905 ft 475 kts 152°
2026-04-11 06:22 10.13952 120.46320 32906 ft 475 kts 152°
2026-04-11 06:22 10.08011 120.49294 32905 ft 475 kts 152°
2026-04-11 06:23 10.02109 120.52244 32907 ft 475 kts 152°
2026-04-11 06:23 9.96181 120.55207 32907 ft 475 kts 152°
2026-04-11 06:24 9.90243 120.58174 32905 ft 475 kts 152°
2026-04-11 06:24 9.84349 120.61117 32904 ft 474 kts 152°
2026-04-11 06:25 9.78421 120.64077 32903 ft 474 kts 152°
2026-04-11 06:25 9.72502 120.67030 32903 ft 474 kts 152°
2026-04-11 06:26 9.66608 120.69969 32901 ft 474 kts 152°
2026-04-11 06:26 9.60682 120.72923 32906 ft 474 kts 152°
2026-04-11 06:27 9.54756 120.75876 32906 ft 474 kts 152°
2026-04-11 06:27 9.48829 120.78828 32908 ft 474 kts 152°
2026-04-11 06:28 9.42910 120.81775 32905 ft 474 kts 152°
2026-04-11 06:28 9.36992 120.84720 32908 ft 474 kts 152°
2026-04-11 06:29 9.31114 120.87645 32908 ft 474 kts 152°
2026-04-11 06:29 9.25191 120.90590 32906 ft 474 kts 152°
2026-04-11 06:30 9.19258 120.93539 32907 ft 474 kts 152°
2026-04-11 06:30 9.13343 120.96479 32905 ft 473 kts 152°
2026-04-11 06:31 9.07465 120.99399 32904 ft 473 kts 152°
2026-04-11 06:31 9.01548 121.02337 32902 ft 473 kts 152°
2026-04-11 06:32 8.95631 121.05274 32903 ft 474 kts 153°
2026-04-11 06:32 8.89697 121.08219 32903 ft 474 kts 153°
2026-04-11 06:33 8.83813 121.11138 32906 ft 474 kts 153°
2026-04-11 06:33 8.77895 121.14072 32903 ft 473 kts 153°
2026-04-11 06:34 8.71977 121.17005 32905 ft 473 kts 153°
2026-04-11 06:34 8.66057 121.19938 32902 ft 474 kts 153°
2026-04-11 06:35 8.60140 121.22869 32903 ft 474 kts 153°
2026-04-11 06:35 8.54238 121.25791 32903 ft 474 kts 153°
2026-04-11 06:36 8.48311 121.28726 32902 ft 474 kts 153°
2026-04-11 06:36 8.42365 121.31668 32901 ft 474 kts 153°
2026-04-11 06:37 8.36466 121.34585 32905 ft 475 kts 153°
2026-04-11 06:37 8.30527 121.37522 32894 ft 475 kts 153°
2026-04-11 06:38 8.24579 121.40462 32898 ft 475 kts 153°
2026-04-11 06:38 8.18673 121.43381 32899 ft 476 kts 153°
2026-04-11 06:39 8.12723 121.46320 32901 ft 476 kts 153°
2026-04-11 06:39 8.06768 121.49260 32896 ft 476 kts 153°
2026-04-11 06:40 8.00812 121.52200 32899 ft 477 kts 153°
2026-04-11 06:40 7.94852 121.55142 32901 ft 477 kts 153°
2026-04-11 06:41 7.88890 121.58082 32894 ft 477 kts 153°
2026-04-11 06:41 7.85905 121.59555 32896 ft 477 kts 153°